"read_dt","SO2 (ppb)","flags","PMT voltage (V)","lamp voltage (V)","lamp intensity (Hz)","internal temp (C)","react chamber temp (C)","sample flow (l/min)","pres (mmHg)","SO2 bkg (ppb)","SO2 coefficient"
2014-07-14 00:00:00,1911E-3,5C000000,-0724,0834,12269,029.6,045.5,0.477,727.1,01.19,0.508
2014-07-14 00:01:00,1879E-3,5C000000,-0724,0833,12224,029.6,045.5,0.477,727.0,01.19,0.508
2014-07-14 00:02:00,1881E-3,5C000000,-0724,0834,11998,029.6,045.5,0.477,727.1,01.19,0.508
2014-07-14 00:03:00,1868E-3,5C000000,-0724,0833,12172,029.6,045.6,0.477,727.1,01.19,0.508
2014-07-14 00:04:00,1899E-3,5C000000,-0724,0834,11931,029.6,045.5,0.477,727.1,01.19,0.508
2014-07-14 00:05:00,1879E-3,5C000000,-0724,0833,12312,029.6,045.5,0.477,727.1,01.19,0.508
2014-07-14 00:06:00,1852E-3,5C000000,-0724,0833,12182,029.6,045.5,0.477,727.1,01.19,0.508
2014-07-14 00:07:00,1689E-3,5C000000,-0724,0833,12124,029.7,045.6,0.477,727.1,01.19,0.508
2014-07-14 00:08:00,1789E-3,5C000000,-0724,0833,12013,029.7,045.5,0.477,727.0,01.19,0.508
2014-07-14 00:09:00,1894E-3,5C000000,-0724,0834,12121,029.6,045.5,0.477,727.1,01.19,0.508
2014-07-14 00:10:00,1879E-3,5C000000,-0724,0833,12134,029.6,045.5,0.477,727.1,01.19,0.508
2014-07-14 00:11:00,1801E-3,5C000000,-0724,0833,12309,029.5,045.5,0.477,727.1,01.19,0.508
2014-07-14 00:12:00,1930E-3,5C000000,-0724,0833,12146,029.5,045.5,0.477,727.1,01.19,0.508
2014-07-14 00:13:00,1781E-3,5C000000,-0724,0834,12139,029.5,045.5,0.477,727.2,01.19,0.508
2014-07-14 00:14:00,1853E-3,5C000000,-0724,0833,12046,029.5,045.5,0.477,727.2,01.19,0.508
2014-07-14 00:15:00,1785E-3,5C000000,-0724,0834,12135,029.5,045.5,0.477,727.1,01.19,0.508
2014-07-14 00:16:00,1809E-3,5C000000,-0724,0833,12272,029.4,045.5,0.477,727.1,01.19,0.508
2014-07-14 00:17:00,1828E-3,5C000000,-0724,0834,12171,029.4,045.5,0.477,727.1,01.19,0.508
2014-07-14 00:18:00,1789E-3,5C000000,-0724,0833,12136,029.4,045.5,0.477,727.2,01.19,0.508
2014-07-14 00:19:00,1888E-3,5C000000,-0724,0833,12266,029.4,045.5,0.477,727.2,01.19,0.508
2014-07-14 00:20:00,1782E-3,5C000000,-0724,0834,12295,029.4,045.5,0.477,727.3,01.19,0.508
2014-07-14 00:21:00,1751E-3,5C000000,-0724,0833,12021,029.3,045.5,0.477,727.3,01.19,0.508
2014-07-14 00:22:00,1888E-3,5C000000,-0724,0833,12083,029.3,045.5,0.477,727.3,01.19,0.508
2014-07-14 00:23:00,1917E-3,5C000000,-0724,0834,12107,029.3,045.5,0.477,727.3,01.19,0.508
2014-07-14 00:24:00,1857E-3,5C000000,-0724,0833,12171,029.3,045.5,0.477,727.3,01.19,0.508
2014-07-14 00:25:00,1773E-3,5C000000,-0724,0833,12222,029.3,045.5,0.477,727.3,01.19,0.508
2014-07-14 00:26:00,1955E-3,5C000000,-0724,0833,12148,029.3,045.5,0.477,727.2,01.19,0.508
2014-07-14 00:27:00,1948E-3,5C000000,-0724,0833,12147,029.3,045.5,0.477,727.3,01.19,0.508
2014-07-14 00:28:00,1782E-3,5C000000,-0724,0832,12108,029.3,045.5,0.477,727.3,01.19,0.508
2014-07-14 00:29:00,1832E-3,5C000000,-0724,0833,12241,029.2,045.5,0.477,727.2,01.19,0.508
2014-07-14 00:30:00,1917E-3,5C000000,-0724,0833,12016,029.3,045.5,0.477,727.3,01.19,0.508
2014-07-14 00:31:00,1814E-3,5C000000,-0724,0833,12268,029.2,045.5,0.477,727.3,01.19,0.508
2014-07-14 00:32:00,1778E-3,5C000000,-0724,0834,12093,029.2,045.5,0.477,727.3,01.19,0.508
2014-07-14 00:33:00,1812E-3,5C000000,-0724,0833,12340,029.2,045.5,0.477,727.3,01.19,0.508
2014-07-14 00:34:00,1895E-3,5C000000,-0724,0834,12173,029.2,045.5,0.477,727.3,01.19,0.508
2014-07-14 00:35:00,1711E-3,5C000000,-0724,0833,12225,029.1,045.5,0.477,727.4,01.19,0.508
2014-07-14 00:36:00,1884E-3,5C000000,-0724,0832,12125,029.1,045.5,0.477,727.5,01.19,0.508
2014-07-14 00:37:00,1852E-3,5C000000,-0724,0833,12330,029.1,045.5,0.477,727.4,01.19,0.508
2014-07-14 00:38:00,1915E-3,5C000000,-0724,0833,12273,029.1,045.5,0.477,727.5,01.19,0.508
2014-07-14 00:39:00,1854E-3,5C000000,-0724,0833,12182,029.1,045.5,0.477,727.5,01.19,0.508
2014-07-14 00:40:00,1833E-3,5C000000,-0724,0833,12237,029.1,045.5,0.477,727.3,01.19,0.508
2014-07-14 00:41:00,1903E-3,5C000000,-0724,0832,12084,029.1,045.5,0.477,727.5,01.19,0.508
2014-07-14 00:42:00,1790E-3,5C000000,-0724,0833,12405,029.1,045.5,0.477,727.4,01.19,0.508
2014-07-14 00:43:00,1954E-3,5C000000,-0724,0833,12215,029.1,045.5,0.477,727.4,01.19,0.508
2014-07-14 00:44:00,1813E-3,5C000000,-0724,0832,12189,029.1,045.5,0.477,727.5,01.19,0.508
2014-07-14 00:45:00,1844E-3,5C000000,-0724,0833,12297,029.1,045.5,0.477,727.4,01.19,0.508
2014-07-14 00:46:00,1774E-3,5C000000,-0724,0833,12366,029.1,045.5,0.477,727.4,01.19,0.508
2014-07-14 00:47:00,1924E-3,5C000000,-0724,0833,12171,029.2,045.5,0.477,727.4,01.19,0.508
2014-07-14 00:48:00,1938E-3,5C000000,-0724,0832,12283,029.2,045.5,0.477,727.4,01.19,0.508
2014-07-14 00:49:00,1925E-3,5C000000,-0724,0834,12224,029.2,045.5,0.477,727.4,01.19,0.508
2014-07-14 00:50:00,1912E-3,5C000000,-0724,0833,12214,029.2,045.5,0.477,727.5,01.19,0.508
2014-07-14 00:51:00,1880E-3,5C000000,-0724,0833,12199,029.2,045.5,0.477,727.5,01.19,0.508
2014-07-14 00:52:00,1874E-3,5C000000,-0724,0832,12133,029.2,045.5,0.476,727.5,01.19,0.508
2014-07-14 00:53:00,1688E-3,5C000000,-0724,0833,12201,029.3,045.5,0.477,727.5,01.19,0.508
2014-07-14 00:54:00,1806E-3,5C000000,-0724,0832,12118,029.3,045.5,0.477,727.5,01.19,0.508
2014-07-14 00:55:00,1838E-3,5C000000,-0724,0832,11903,029.3,045.5,0.477,727.5,01.19,0.508
2014-07-14 00:56:00,1691E-3,5C000000,-0724,0833,12238,029.3,045.5,0.476,727.5,01.19,0.508
2014-07-14 00:57:00,1738E-3,5C000000,-0724,0833,12267,029.3,045.5,0.476,727.6,01.19,0.508
2014-07-14 00:58:00,1625E-3,5C000000,-0724,0832,11972,029.3,045.5,0.476,727.5,01.19,0.508
2014-07-14 00:59:00,1868E-3,5C000000,-0724,0832,12203,029.3,045.5,0.476,727.4,01.19,0.508
2014-07-14 01:00:00,1890E-3,5C000000,-0724,0833,12231,029.3,045.5,0.476,727.5,01.19,0.508
2014-07-14 01:01:00,1887E-3,5C000000,-0724,0833,12035,029.4,045.5,0.476,727.5,01.19,0.508
2014-07-14 01:02:00,1875E-3,5C000000,-0724,0833,12069,029.4,045.5,0.476,727.5,01.19,0.508
2014-07-14 01:03:00,1846E-3,5C000000,-0724,0831,12152,029.4,045.5,0.476,727.6,01.19,0.508
2014-07-14 01:04:00,1832E-3,5C000000,-0724,0833,12242,029.5,045.5,0.476,727.5,01.19,0.508
2014-07-14 01:05:00,1906E-3,5C000000,-0724,0833,12149,029.4,045.5,0.476,727.6,01.19,0.508
2014-07-14 01:06:00,1916E-3,5C000000,-0724,0832,12109,029.5,045.5,0.476,727.5,01.19,0.508
2014-07-14 01:07:00,1795E-3,5C000000,-0724,0834,12133,029.4,045.5,0.476,727.6,01.19,0.508
2014-07-14 01:08:00,1842E-3,5C000000,-0724,0833,12107,029.4,045.5,0.476,727.5,01.19,0.508
2014-07-14 01:09:00,1893E-3,5C000000,-0724,0834,12167,029.4,045.5,0.475,727.6,01.19,0.508
2014-07-14 01:10:00,1870E-3,5C000000,-0724,0834,12188,029.4,045.5,0.476,727.7,01.19,0.508
2014-07-14 01:11:00,1790E-3,5C000000,-0724,0833,11979,029.4,045.5,0.475,727.6,01.19,0.508
2014-07-14 01:12:00,1906E-3,5C000000,-0724,0833,12170,029.4,045.5,0.476,727.6,01.19,0.508
2014-07-14 01:13:00,1771E-3,5C000000,-0724,0834,12224,029.4,045.5,0.475,727.5,01.19,0.508
2014-07-14 01:14:00,1814E-3,5C000000,-0724,0833,12291,029.5,045.5,0.476,727.5,01.19,0.508
2014-07-14 01:15:00,1873E-3,5C000000,-0724,0833,12357,029.4,045.5,0.476,727.5,01.19,0.508
2014-07-14 01:16:00,1863E-3,5C000000,-0724,0832,12064,029.4,045.5,0.476,727.4,01.19,0.508
2014-07-14 01:17:00,1864E-3,5C000000,-0724,0833,12114,029.4,045.5,0.476,727.5,01.19,0.508
2014-07-14 01:18:00,1813E-3,5C000000,-0724,0833,12256,029.4,045.5,0.476,727.5,01.19,0.508
2014-07-14 01:19:00,1841E-3,5C000000,-0724,0833,12170,029.4,045.5,0.476,727.6,01.19,0.508
2014-07-14 01:20:00,1780E-3,5C000000,-0724,0832,12151,029.4,045.5,0.475,727.5,01.19,0.508
2014-07-14 01:21:00,1798E-3,5C000000,-0724,0834,12109,029.5,045.5,0.476,727.6,01.19,0.508
2014-07-14 01:22:00,1933E-3,5C000000,-0724,0833,12263,029.4,045.5,0.476,727.6,01.19,0.508
2014-07-14 01:23:00,1787E-3,5C000000,-0724,0832,12288,029.5,045.5,0.476,727.6,01.19,0.508
2014-07-14 01:24:00,1859E-3,5C000000,-0724,0833,12217,029.5,045.5,0.476,727.6,01.19,0.508
2014-07-14 01:25:00,1831E-3,5C000000,-0724,0833,12121,029.5,045.5,0.475,727.6,01.19,0.508
2014-07-14 01:26:00,1855E-3,5C000000,-0724,0834,12152,029.5,045.5,0.476,727.7,01.19,0.508
2014-07-14 01:27:00,1845E-3,5C000000,-0724,0834,12088,029.5,045.5,0.476,727.6,01.19,0.508
2014-07-14 01:28:00,1897E-3,5C000000,-0724,0833,12195,029.5,045.5,0.475,727.6,01.19,0.508
2014-07-14 01:29:00,1938E-3,5C000000,-0724,0833,12289,029.5,045.5,0.476,727.6,01.19,0.508
2014-07-14 01:30:00,1907E-3,5C000000,-0724,0832,12273,029.5,045.5,0.475,727.6,01.19,0.508
2014-07-14 01:31:00,1774E-3,5C000000,-0724,0833,12315,029.5,045.6,0.476,727.6,01.19,0.508
2014-07-14 01:32:00,1855E-3,5C000000,-0724,0833,12281,029.5,045.5,0.476,727.6,01.19,0.508
2014-07-14 01:33:00,1952E-3,5C000000,-0724,0833,12132,029.6,045.5,0.475,727.5,01.19,0.508
2014-07-14 01:34:00,1815E-3,5C000000,-0724,0832,12226,029.6,045.5,0.476,727.7,01.19,0.508
2014-07-14 01:35:00,2002E-3,5C000000,-0724,0834,12134,029.6,045.5,0.476,727.6,01.19,0.508
2014-07-14 01:36:00,1833E-3,5C000000,-0724,0833,12182,029.6,045.6,0.475,727.6,01.19,0.508
2014-07-14 01:37:00,1901E-3,5C000000,-0724,0834,12228,029.6,045.5,0.476,727.6,01.19,0.508
2014-07-14 01:38:00,1819E-3,5C000000,-0724,0832,12196,029.6,045.5,0.476,727.6,01.19,0.508
2014-07-14 01:39:00,1888E-3,5C000000,-0724,0833,12111,029.6,045.5,0.475,727.5,01.19,0.508
2014-07-14 01:40:00,1889E-3,5C000000,-0724,0833,12249,029.6,045.5,0.476,727.6,01.19,0.508
2014-07-14 01:41:00,1813E-3,5C000000,-0724,0832,12109,029.6,045.5,0.476,727.6,01.19,0.508
2014-07-14 01:42:00,1787E-3,5C000000,-0724,0833,12154,029.7,045.5,0.475,727.6,01.19,0.508
2014-07-14 01:43:00,1909E-3,5C000000,-0724,0832,12166,029.7,045.5,0.476,727.5,01.19,0.508
2014-07-14 01:44:00,1944E-3,5C000000,-0724,0833,12214,029.7,045.5,0.476,727.7,01.19,0.508
2014-07-14 01:45:00,1829E-3,5C000000,-0724,0833,12095,029.7,045.5,0.475,727.7,01.19,0.508
2014-07-14 01:46:00,1815E-3,5C000000,-0724,0832,12287,029.7,045.5,0.476,727.7,01.19,0.508
2014-07-14 01:47:00,1735E-3,5C000000,-0724,0834,12220,029.7,045.5,0.476,727.7,01.19,0.508
2014-07-14 01:48:00,1853E-3,5C000000,-0724,0833,12246,029.7,045.5,0.475,727.6,01.19,0.508
2014-07-14 01:49:00,1820E-3,5C000000,-0724,0832,12017,029.7,045.5,0.476,727.7,01.19,0.508
2014-07-14 01:50:00,1911E-3,5C000000,-0724,0834,12221,029.7,045.5,0.476,727.8,01.19,0.508
2014-07-14 01:51:00,1930E-3,5C000000,-0724,0833,12171,029.8,045.5,0.475,727.7,01.19,0.508
2014-07-14 01:52:00,1862E-3,5C000000,-0724,0833,12364,029.8,045.5,0.476,727.8,01.19,0.508
2014-07-14 01:53:00,1749E-3,5C000000,-0724,0833,12080,029.8,045.5,0.476,727.6,01.19,0.508
2014-07-14 01:54:00,1962E-3,5C000000,-0724,0833,12160,029.8,045.5,0.475,727.8,01.19,0.508
2014-07-14 01:55:00,1821E-3,5C000000,-0724,0832,11925,029.8,045.5,0.475,727.7,01.19,0.508
2014-07-14 01:56:00,1768E-3,5C000000,-0724,0834,12225,029.8,045.5,0.476,727.7,01.19,0.508
2014-07-14 01:57:00,1906E-3,5C000000,-0724,0832,12157,029.8,045.5,0.475,727.7,01.19,0.508
2014-07-14 01:58:00,1938E-3,5C000000,-0724,0833,12166,029.8,045.5,0.476,727.7,01.19,0.508
2014-07-14 01:59:00,1828E-3,5C000000,-0724,0834,12272,029.8,045.5,0.476,727.7,01.19,0.508
2014-07-14 02:00:00,1924E-3,5C000000,-0724,0834,12254,029.8,045.5,0.476,727.7,01.19,0.508
2014-07-14 02:01:00,1832E-3,5C000000,-0724,0833,12304,029.8,045.5,0.475,727.7,01.19,0.508
2014-07-14 02:02:00,1866E-3,5C000000,-0724,0833,12189,029.8,045.5,0.476,727.7,01.19,0.508
2014-07-14 02:03:00,1883E-3,5C000000,-0724,0833,12304,029.8,045.5,0.476,727.8,01.19,0.508
2014-07-14 02:04:00,1828E-3,5C000000,-0724,0833,12188,029.8,045.5,0.476,727.7,01.19,0.508
2014-07-14 02:05:00,1821E-3,5C000000,-0724,0833,12127,029.8,045.5,0.476,727.8,01.19,0.508
2014-07-14 02:06:00,1679E-3,5C000000,-0724,0834,12271,029.8,045.5,0.476,727.8,01.19,0.508
2014-07-14 02:07:00,1860E-3,5C000000,-0724,0833,12261,029.8,045.5,0.476,727.8,01.19,0.508
2014-07-14 02:08:00,1933E-3,5C000000,-0724,0833,12369,029.8,045.5,0.476,727.9,01.19,0.508
2014-07-14 02:09:00,1902E-3,5C000000,-0724,0833,12188,029.8,045.5,0.476,727.8,01.19,0.508
2014-07-14 02:10:00,1887E-3,5C000000,-0724,0834,12226,029.7,045.5,0.476,727.9,01.19,0.508
2014-07-14 02:11:00,1857E-3,5C000000,-0724,0834,12157,029.7,045.5,0.476,727.9,01.19,0.508
2014-07-14 02:12:00,1895E-3,5C000000,-0724,0832,12118,029.7,045.5,0.476,727.9,01.19,0.508
2014-07-14 02:13:00,1869E-3,5C000000,-0724,0834,11921,029.7,045.5,0.476,727.8,01.19,0.508
2014-07-14 02:14:00,1897E-3,5C000000,-0724,0832,12199,029.7,045.5,0.476,727.8,01.19,0.508
2014-07-14 02:15:00,1829E-3,5C000000,-0724,0833,12222,029.7,045.5,0.476,727.9,01.19,0.508
2014-07-14 02:16:00,1846E-3,5C000000,-0724,0833,12131,029.7,045.5,0.476,727.8,01.19,0.508
2014-07-14 02:17:00,1921E-3,5C000000,-0724,0833,12072,029.7,045.5,0.476,727.8,01.19,0.508
2014-07-14 02:18:00,1933E-3,5C000000,-0724,0833,12077,029.7,045.5,0.476,727.8,01.19,0.508
2014-07-14 02:19:00,1838E-3,5C000000,-0724,0833,12205,029.7,045.5,0.476,727.8,01.19,0.508
2014-07-14 02:20:00,1985E-3,5C000000,-0724,0833,12149,029.7,045.5,0.476,727.8,01.19,0.508
2014-07-14 02:21:00,1943E-3,5C000000,-0724,0834,12295,029.7,045.5,0.476,727.8,01.19,0.508
2014-07-14 02:22:00,1794E-3,5C000000,-0724,0834,12174,029.7,045.6,0.476,727.9,01.19,0.508
2014-07-14 02:23:00,1950E-3,5C000000,-0724,0834,12367,029.7,045.6,0.476,727.8,01.19,0.508
2014-07-14 02:24:00,1869E-3,5C000000,-0724,0833,12171,029.7,045.5,0.476,727.9,01.19,0.508
2014-07-14 02:25:00,1839E-3,5C000000,-0724,0833,12073,029.8,045.5,0.476,727.8,01.19,0.508
2014-07-14 02:26:00,1898E-3,5C000000,-0724,0832,12259,029.7,045.6,0.476,727.8,01.19,0.508
2014-07-14 02:27:00,1847E-3,5C000000,-0724,0834,12033,029.7,045.5,0.476,727.9,01.19,0.508
2014-07-14 02:28:00,1843E-3,5C000000,-0724,0833,12044,029.8,045.5,0.476,727.9,01.19,0.508
2014-07-14 02:29:00,1824E-3,5C000000,-0724,0833,12169,029.7,045.5,0.476,727.8,01.19,0.508
2014-07-14 02:30:00,1866E-3,5C000000,-0724,0833,12128,029.7,045.5,0.476,727.8,01.19,0.508
2014-07-14 02:31:00,1772E-3,5C000000,-0724,0833,12033,029.7,045.5,0.476,727.8,01.19,0.508
2014-07-14 02:32:00,1845E-3,5C000000,-0724,0833,12176,029.7,045.5,0.476,727.8,01.19,0.508
2014-07-14 02:33:00,1757E-3,5C000000,-0724,0833,12106,029.7,045.5,0.476,728.0,01.19,0.508
2014-07-14 02:34:00,1958E-3,5C000000,-0724,0833,12224,029.7,045.5,0.476,728.0,01.19,0.508
2014-07-14 02:35:00,1919E-3,5C000000,-0724,0833,12090,029.8,045.5,0.476,728.0,01.19,0.508
2014-07-14 02:36:00,1913E-3,5C000000,-0724,0833,12142,029.7,045.5,0.476,727.8,01.19,0.508
2014-07-14 02:37:00,1879E-3,5C000000,-0724,0833,12094,029.8,045.5,0.476,727.9,01.19,0.508
2014-07-14 02:38:00,1849E-3,5C000000,-0724,0833,12267,029.8,045.5,0.476,727.9,01.19,0.508
2014-07-14 02:39:00,1717E-3,5C000000,-0724,0834,12187,029.8,045.5,0.476,727.8,01.19,0.508
2014-07-14 02:40:00,2004E-3,5C000000,-0724,0833,12303,029.8,045.5,0.476,727.9,01.19,0.508
2014-07-14 02:41:00,1928E-3,5C000000,-0724,0834,12262,029.8,045.5,0.476,727.8,01.19,0.508
2014-07-14 02:42:00,1902E-3,5C000000,-0724,0833,12091,029.8,045.5,0.476,727.8,01.19,0.508
2014-07-14 02:43:00,1813E-3,5C000000,-0724,0833,12391,029.8,045.5,0.476,727.9,01.19,0.508
2014-07-14 02:44:00,1891E-3,5C000000,-0724,0834,12120,029.8,045.5,0.476,727.8,01.19,0.508
2014-07-14 02:45:00,1659E-3,5C000000,-0724,0833,12210,029.8,045.5,0.476,727.9,01.19,0.508
2014-07-14 02:46:00,1703E-3,5C000000,-0724,0833,12107,029.8,045.5,0.476,728.0,01.19,0.508
2014-07-14 02:47:00,1842E-3,5C000000,-0724,0834,12186,029.8,045.5,0.476,727.9,01.19,0.508
2014-07-14 02:48:00,1940E-3,5C000000,-0724,0833,12217,029.8,045.5,0.476,728.0,01.19,0.508
2014-07-14 02:49:00,1863E-3,5C000000,-0724,0833,12072,029.8,045.5,0.476,728.0,01.19,0.508
2014-07-14 02:50:00,1853E-3,5C000000,-0724,0833,12225,029.8,045.5,0.476,728.0,01.19,0.508
2014-07-14 02:51:00,1926E-3,5C000000,-0724,0834,12222,029.8,045.5,0.476,728.0,01.19,0.508
2014-07-14 02:52:00,1912E-3,5C000000,-0724,0833,12144,029.8,045.5,0.476,728.0,01.19,0.508
2014-07-14 02:53:00,1889E-3,5C000000,-0724,0834,12280,029.9,045.5,0.476,728.0,01.19,0.508
2014-07-14 02:54:00,1937E-3,5C000000,-0724,0833,12333,029.9,045.5,0.476,728.0,01.19,0.508
2014-07-14 02:55:00,1896E-3,5C000000,-0724,0834,12177,029.8,045.5,0.476,728.0,01.19,0.508
2014-07-14 02:56:00,1799E-3,5C000000,-0724,0834,12172,029.9,045.5,0.476,728.0,01.19,0.508
2014-07-14 02:57:00,1889E-3,5C000000,-0724,0833,12197,029.9,045.5,0.476,728.1,01.19,0.508
2014-07-14 02:58:00,1865E-3,5C000000,-0724,0833,12018,029.9,045.5,0.476,728.1,01.19,0.508
2014-07-14 02:59:00,1814E-3,5C000000,-0724,0833,11946,029.9,045.5,0.476,728.1,01.19,0.508
2014-07-14 03:00:00,1891E-3,5C000000,-0724,0834,12012,029.9,045.5,0.476,728.1,01.19,0.508
2014-07-14 03:01:00,1922E-3,5C000000,-0724,0833,12281,029.9,045.5,0.476,728.2,01.19,0.508
2014-07-14 03:02:00,1811E-3,5C000000,-0724,0833,12171,029.9,045.6,0.476,728.1,01.19,0.508
2014-07-14 03:03:00,1786E-3,5C000000,-0724,0835,12279,030.0,045.5,0.476,728.1,01.19,0.508
2014-07-14 03:04:00,1847E-3,5C000000,-0724,0833,12267,030.0,045.5,0.476,727.9,01.19,0.508
2014-07-14 03:05:00,1790E-3,5C000000,-0724,0833,12097,030.0,045.5,0.476,728.1,01.19,0.508
2014-07-14 03:06:00,1791E-3,5C000000,-0724,0834,12198,030.1,045.6,0.476,728.0,01.19,0.508
2014-07-14 03:07:00,1793E-3,5C000000,-0724,0833,11839,030.1,045.5,0.476,728.1,01.19,0.508
2014-07-14 03:08:00,1962E-3,5C000000,-0724,0832,12201,030.1,045.6,0.476,728.0,01.19,0.508
2014-07-14 03:09:00,1764E-3,5C000000,-0724,0833,12076,030.1,045.6,0.476,728.0,01.19,0.508
2014-07-14 03:10:00,1833E-3,5C000000,-0724,0833,12165,030.2,045.5,0.476,728.1,01.19,0.508
2014-07-14 03:11:00,1944E-3,5C000000,-0724,0834,12168,030.2,045.5,0.476,728.1,01.19,0.508
2014-07-14 03:12:00,1794E-3,5C000000,-0724,0834,11995,030.2,045.5,0.476,728.1,01.19,0.508
2014-07-14 03:13:00,1940E-3,5C000000,-0724,0833,12246,030.3,045.5,0.476,728.2,01.19,0.508
2014-07-14 03:14:00,1827E-3,5C000000,-0724,0833,11941,030.2,045.5,0.475,728.0,01.19,0.508
2014-07-14 03:15:00,1888E-3,5C000000,-0724,0833,12150,030.2,045.5,0.476,728.1,01.19,0.508
2014-07-14 03:16:00,1904E-3,5C000000,-0724,0833,12150,030.3,045.6,0.475,728.0,01.19,0.508
2014-07-14 03:17:00,1888E-3,5C000000,-0724,0832,12256,030.3,045.6,0.476,728.0,01.19,0.508
2014-07-14 03:18:00,1872E-3,5C000000,-0724,0833,12213,030.4,045.6,0.475,728.2,01.19,0.508
2014-07-14 03:19:00,1836E-3,5C000000,-0724,0834,12191,030.4,045.5,0.476,728.2,01.19,0.508
2014-07-14 03:20:00,1785E-3,5C000000,-0724,0833,12275,030.5,045.5,0.475,728.2,01.19,0.508
2014-07-14 03:21:00,1822E-3,5C000000,-0724,0833,12100,030.5,045.6,0.476,728.1,01.19,0.508
2014-07-14 03:22:00,1760E-3,5C000000,-0724,0833,12238,030.5,045.6,0.475,728.1,01.19,0.508
2014-07-14 03:23:00,1791E-3,5C000000,-0724,0834,12239,030.5,045.6,0.476,728.3,01.19,0.508
2014-07-14 03:24:00,1763E-3,5C000000,-0724,0833,12299,030.6,045.6,0.475,728.1,01.19,0.508
2014-07-14 03:25:00,1863E-3,5C000000,-0724,0833,12241,030.6,045.6,0.475,728.2,01.19,0.508
2014-07-14 03:26:00,1799E-3,5C000000,-0724,0833,12084,030.6,045.6,0.475,728.2,01.19,0.508
2014-07-14 03:27:00,1827E-3,5C000000,-0724,0834,12058,030.6,045.6,0.475,728.2,01.19,0.508
2014-07-14 03:28:00,1718E-3,5C000000,-0724,0834,12275,030.7,045.6,0.475,728.2,01.19,0.508
2014-07-14 03:29:00,2079E-3,5C000000,-0724,0833,12159,030.7,045.6,0.475,728.3,01.19,0.508
2014-07-14 03:30:00,1842E-3,5C000000,-0724,0833,12368,030.7,045.5,0.475,728.2,01.19,0.508
2014-07-14 03:31:00,1855E-3,5C000000,-0724,0833,11803,030.6,045.5,0.475,728.2,01.19,0.508
2014-07-14 03:32:00,1876E-3,5C000000,-0724,0833,12074,030.7,045.6,0.475,728.3,01.19,0.508
2014-07-14 03:33:00,1815E-3,5C000000,-0724,0834,12172,030.7,045.6,0.475,728.3,01.19,0.508
2014-07-14 03:34:00,1744E-3,5C000000,-0724,0834,12054,030.7,045.6,0.475,728.3,01.19,0.508
2014-07-14 03:35:00,1785E-3,5C000000,-0724,0834,12266,030.8,045.5,0.475,728.4,01.19,0.508
2014-07-14 03:36:00,1822E-3,5C000000,-0724,0834,12287,030.7,045.6,0.475,728.3,01.19,0.508
2014-07-14 03:37:00,1724E-3,5C000000,-0724,0833,12189,030.8,045.5,0.475,728.4,01.19,0.508
2014-07-14 03:38:00,1815E-3,5C000000,-0724,0833,12189,030.8,045.6,0.475,728.4,01.19,0.508
2014-07-14 03:39:00,2008E-3,5C000000,-0724,0832,12227,030.8,045.6,0.475,728.4,01.19,0.508
2014-07-14 03:40:00,1939E-3,5C000000,-0724,0834,11862,030.8,045.6,0.475,728.3,01.19,0.508
2014-07-14 03:41:00,1877E-3,5C000000,-0724,0834,12044,030.9,045.6,0.475,728.4,01.19,0.508
2014-07-14 03:42:00,1897E-3,5C000000,-0724,0834,12187,030.8,045.6,0.474,728.4,01.19,0.508
2014-07-14 03:43:00,1907E-3,5C000000,-0724,0834,12007,030.9,045.6,0.475,728.3,01.19,0.508
2014-07-14 03:44:00,1805E-3,5C000000,-0724,0833,12281,030.9,045.6,0.474,728.4,01.19,0.508
2014-07-14 03:45:00,1748E-3,5C000000,-0724,0833,12116,030.9,045.6,0.475,728.4,01.19,0.508
2014-07-14 03:46:00,1806E-3,5C000000,-0724,0833,12098,030.9,045.6,0.474,728.3,01.19,0.508
2014-07-14 03:47:00,1796E-3,5C000000,-0724,0834,12258,030.9,045.6,0.475,728.4,01.19,0.508
2014-07-14 03:48:00,1773E-3,5C000000,-0724,0834,12164,030.9,045.6,0.475,728.5,01.19,0.508
2014-07-14 03:49:00,1787E-3,5C000000,-0724,0833,11969,030.9,045.6,0.475,728.5,01.19,0.508
2014-07-14 03:50:00,1699E-3,5C000000,-0724,0833,12208,030.9,045.6,0.475,728.5,01.19,0.508
2014-07-14 03:51:00,1832E-3,5C000000,-0724,0834,12171,030.9,045.6,0.474,728.4,01.19,0.508
2014-07-14 03:52:00,1901E-3,5C000000,-0724,0833,12224,031.0,045.6,0.475,728.5,01.19,0.508
2014-07-14 03:53:00,1769E-3,5C000000,-0724,0834,12029,031.0,045.6,0.474,728.5,01.19,0.508
2014-07-14 03:54:00,1929E-3,5C000000,-0724,0834,12176,031.0,045.6,0.475,728.3,01.19,0.508
2014-07-14 03:55:00,1927E-3,5C000000,-0724,0834,12209,031.0,045.6,0.475,728.3,01.19,0.508
2014-07-14 03:56:00,1728E-3,5C000000,-0724,0834,12212,031.0,045.6,0.474,728.3,01.19,0.508
2014-07-14 03:57:00,1964E-3,5C000000,-0724,0834,12178,031.0,045.6,0.475,728.5,01.19,0.508
2014-07-14 03:58:00,1840E-3,5C000000,-0724,0833,12177,031.0,045.6,0.475,728.6,01.19,0.508
2014-07-14 03:59:00,1809E-3,5C000000,-0724,0833,12178,031.0,045.6,0.474,728.6,01.19,0.508
2014-07-14 04:00:00,1900E-3,5C000000,-0724,0833,12218,031.0,045.6,0.475,728.5,01.19,0.508
2014-07-14 04:01:00,1841E-3,5C000000,-0724,0834,12156,031.0,045.6,0.474,728.6,01.19,0.508
2014-07-14 04:02:00,1940E-3,5C000000,-0724,0833,12220,031.0,045.6,0.475,728.6,01.19,0.508
2014-07-14 04:03:00,1885E-3,5C000000,-0724,0833,12129,031.0,045.6,0.475,728.4,01.19,0.508
2014-07-14 04:04:00,1829E-3,5C000000,-0724,0833,12128,031.1,045.6,0.474,728.5,01.19,0.508
2014-07-14 04:05:00,1861E-3,5C000000,-0724,0834,12188,031.0,045.6,0.475,728.6,01.19,0.508
2014-07-14 04:06:00,1809E-3,5C000000,-0724,0834,12145,031.1,045.6,0.474,728.7,01.19,0.508
2014-07-14 04:07:00,1958E-3,5C000000,-0724,0833,12051,031.1,045.6,0.474,728.7,01.19,0.508
2014-07-14 04:08:00,1877E-3,5C000000,-0724,0833,12071,031.0,045.6,0.475,728.6,01.19,0.508
2014-07-14 04:09:00,1908E-3,5C000000,-0724,0833,12151,031.1,045.6,0.474,728.6,01.19,0.508
2014-07-14 04:10:00,1893E-3,5C000000,-0724,0834,12261,031.1,045.6,0.475,728.5,01.19,0.508
2014-07-14 04:11:00,1944E-3,5C000000,-0724,0833,12235,031.1,045.6,0.474,728.5,01.19,0.508
2014-07-14 04:12:00,1707E-3,5C000000,-0724,0834,12098,031.1,045.6,0.474,728.6,01.19,0.508
2014-07-14 04:13:00,1866E-3,5C000000,-0724,0834,12103,031.1,045.6,0.475,728.5,01.19,0.508
2014-07-14 04:14:00,1742E-3,5C000000,-0724,0833,12087,031.0,045.6,0.474,728.6,01.19,0.508
2014-07-14 04:15:00,1952E-3,5C000000,-0724,0833,12107,031.0,045.6,0.475,728.7,01.19,0.508
2014-07-14 04:16:00,1848E-3,5C000000,-0724,0833,12227,031.0,045.6,0.474,728.7,01.19,0.508
2014-07-14 04:17:00,1850E-3,5C000000,-0724,0834,12100,031.0,045.6,0.475,728.7,01.19,0.508
2014-07-14 04:18:00,1909E-3,5C000000,-0724,0833,12059,031.0,045.6,0.475,728.7,01.19,0.508
2014-07-14 04:19:00,1989E-3,5C000000,-0724,0833,12109,031.1,045.6,0.474,728.7,01.19,0.508
2014-07-14 04:20:00,1758E-3,5C000000,-0724,0833,12227,031.0,045.6,0.475,728.7,01.19,0.508